Marshfield, WI

7:22 AM CST on February 10, 2016 (GMT -0600)
Marshfield Municipal

Weather History for KMFI - May, 2013

Change the Weather History Date:

Monday, May 27, 2013

  Actual Average (WUND) Record (WUND)
Temperature  
Mean Temperature 54 °F -  
Max Temperature 57 °F - - (-1)
Min Temperature 50 °F - - (-1)
Degree Days  
Heating Degree Days 12    
Growing Degree Days 4 (Base 50)    
Moisture  
Dew Point 46 °F    
Average Humidity 76    
Maximum Humidity 96    
Minimum Humidity 57    
Precipitation  
Precipitation 0.12 in - - ()
Sea Level Pressure  
Sea Level Pressure 30.01 in    
Wind  
Wind Speed 11 mph (ESE)    
Max Wind Speed 20 mph    
Max Gust Speed 24 mph    
Visibility 8 miles    
Events Rain    
Averages and records for this station are not official NWS values.
T = Trace of Precipitation, MM = Missing Value Source: NWS Daily Summary

Daily Weather History Graph

Daily Weather History Graph

Search for Another Location

Airport or City:

Trip Planner

Search our weather history database for the weather conditions in past years. The results will help you decide how hot, cold, wet, or windy it might be!

Date:

Astronomy

May. 27, 2013 Rise Set
Actual Time 5:21 AM CDT 8:34 PM CDT
Civil Twilight 4:46 AM CDT 9:10 PM CDT
Nautical Twilight 4:00 AM CDT 9:56 PM CDT
Astronomical Twilight 3:04 AM CDT 10:53 PM CDT
Moon 11:10 PM CDT (5/27) 8:00 AM CDT (5/27)
Length of Visible Light 16h 24m
Length of Day
15h 13m
Waning Gibbous, 91% of the Moon is Illuminated
May 27
Waning Gibbous
May 31
Last Quarter
Jun 8
New
Jun 16
First Quarter
Jun 23
Full

Hourly Weather History & Observations

Time (CDT) Temp. Dew Point Humidity Pressure Visibility Wind Dir Wind Speed Gust Speed Precip Events Conditions
12:54 AM 54.0 °F 39.0 °F 57% 30.13 in 10.0 mi ESE 9.2 mph - N/A   Overcast
1:54 AM 54.0 °F 39.0 °F 57% 30.13 in 10.0 mi ESE 10.4 mph - N/A   Overcast
2:54 AM 54.0 °F 39.0 °F 57% 30.12 in 10.0 mi ESE 8.1 mph - N/A   Overcast
3:54 AM 53.1 °F 39.0 °F 59% 30.11 in 10.0 mi East 9.2 mph - N/A   Overcast
4:54 AM 52.0 °F 37.9 °F 59% 30.08 in 10.0 mi East 10.4 mph - N/A   Overcast
5:54 AM 52.0 °F 37.0 °F 57% 30.08 in 10.0 mi East 10.4 mph - N/A   Overcast
6:54 AM 52.0 °F 37.9 °F 59% 30.09 in 10.0 mi East 6.9 mph - N/A   Overcast
7:54 AM 53.1 °F 39.0 °F 59% 30.09 in 10.0 mi ESE 10.4 mph - N/A   Overcast
8:54 AM 55.0 °F 42.1 °F 62% 30.06 in 10.0 mi ESE 11.5 mph - N/A   Overcast
9:54 AM 57.0 °F 44.1 °F 62% 30.02 in 10.0 mi ESE 16.1 mph 23.0 mph N/A   Overcast
10:54 AM 57.0 °F 46.0 °F 67% 30.06 in 10.0 mi SE 15.0 mph 24.2 mph N/A   Overcast
11:29 AM 57.2 °F 46.4 °F 67% 30.04 in 10.0 mi ESE 12.7 mph 21.9 mph N/A   Overcast
11:54 AM 57.9 °F 46.9 °F 67% 30.05 in 10.0 mi ESE 16.1 mph 23.0 mph N/A   Overcast
12:54 PM 57.9 °F 48.9 °F 72% 30.01 in 10.0 mi ESE 13.8 mph 24.2 mph 0.00 in   Overcast
1:54 PM 57.0 °F 48.9 °F 74% 29.99 in 10.0 mi ESE 19.6 mph 23.0 mph 0.00 in   Overcast
2:54 PM 57.0 °F 50.0 °F 77% 29.99 in 10.0 mi ESE 10.4 mph - N/A   Overcast
3:54 PM 55.0 °F 50.0 °F 83% 30.00 in 10.0 mi SE 12.7 mph 20.7 mph N/A   Overcast
4:54 PM 54.0 °F 51.1 °F 90% 29.98 in 10.0 mi ESE 12.7 mph 23.0 mph 0.00 in Rain Light Rain
5:05 PM 53.6 °F 51.8 °F 94% 29.96 in 8.0 mi ESE 12.7 mph - 0.00 in Rain Light Rain
5:54 PM 52.0 °F 50.0 °F 93% 29.96 in 4.0 mi East 16.1 mph 21.9 mph 0.04 in Rain Rain
6:54 PM 51.1 °F 50.0 °F 96% 29.95 in 5.0 mi ESE 11.5 mph - 0.04 in Rain Light Rain
7:50 PM 51.8 °F 48.2 °F 88% 29.93 in 5.0 mi ESE 13.8 mph - 0.01 in Rain Light Rain
7:54 PM 51.1 °F 48.9 °F 92% 29.95 in 5.0 mi ESE 15.0 mph 20.7 mph 0.01 in Rain Light Rain
8:11 PM 51.8 °F 48.2 °F 88% 29.93 in 4.0 mi ESE 12.7 mph - 0.01 in Rain Light Rain
8:54 PM 51.1 °F 48.9 °F 92% 29.94 in 8.0 mi ESE 11.5 mph 17.3 mph 0.02 in Rain Light Rain
9:34 PM 51.8 °F 48.2 °F 88% 29.92 in 7.0 mi ESE 10.4 mph - 0.01 in Rain Light Rain
9:54 PM 51.1 °F 48.9 °F 92% 29.94 in 9.0 mi ESE 10.4 mph - 0.01 in Rain Light Rain
10:54 PM 51.1 °F 48.9 °F 92% 29.94 in 7.0 mi East 8.1 mph - 0.00 in Rain Light Rain
11:37 PM 50.0 °F 48.2 °F 94% 29.92 in 5.0 mi ESE 8.1 mph - 0.00 in Rain Light Rain
11:54 PM 50.0 °F 48.9 °F 96% 29.93 in 5.0 mi East 9.2 mph - 0.00 in Rain Light Rain